Location: Poughquag
(41.6090°N, 73.6820°W)
Time: 18:40:37
(UTC-04:00)

ELECTRON R/B - Visible Passes

Search period start: 21 May 2018 00:00
Search period end: 31 May 2018 00:00
Orbit: 285 x 480 km, 82.9° (Epoch: 20 May)

Date Brightness Start Highest point End Pass type
(mag) Time Alt. Az. Time Alt. Az. Time Alt. Az.
21 May 4.2 21:41:09 10° N 21:43:34 72° E 21:44:08 46° SSE visible
22 May 6.9 20:46:55 10° ENE 20:46:58 10° ENE 20:47:01 10° ENE visible
22 May 7.0 22:18:18 10° NW 22:19:50 15° W 22:20:40 13° WSW visible
23 May 4.4 21:21:04 10° N 21:23:28 58° E 21:24:53 21° SSE visible
24 May 7.0 21:57:50 10° NW 21:59:37 18° W 22:01:21 10° SW visible
25 May 4.7 21:00:42 10° N 21:03:04 46° E 21:05:29 10° SSE visible
26 May 6.8 21:37:07 10° NW 21:39:06 22° W 21:41:08 10° SSW visible
28 May 6.5 21:16:07 10° NNW 21:18:17 27° W 21:20:32 10° SSW visible
30 May 6.2 20:54:50 10° NNW 20:57:10 34° W 20:59:36 10° SSW visible
